Location: Wavehorne
(51.0500°N, 0.8333°E)
Time: 02:44:21
(UTC+00:00)

Cosmos 2263 - Pass Details

Date: 20 June 2021
Orbit: 832 x 865 km, 70.9° (Epoch: 04 August)

Event Time Altitude Azimuth Distance (km) Brightness Sun altitude
Rises 00:39:31 0° 329° (NNW) 3,430 8.2 -15.0°
Reaches altitude 10° 00:41:59 10° 329° (NNW) 2,485 7.4 -14.9°
Maximum altitude 00:47:42 84° 243° (WSW) 854 4.2 -14.7°
Enters shadow 00:52:37 14° 155° (SSE) 2,180 5.9 -14.6°
